1486080001.25,12269,9.44,73012.3,-4.81,-5.77,-5.73,0,*57
1486080002.52,12270,9.44,73008.5,-4.81,-5.77,-5.73,0,*5F
1486080003.78,12271,9.44,73012.5,-4.81,-5.73,-5.65,0,*5D
1486080005.03,12272,9.44,73004.3,-4.83,-5.77,-5.77,0,*5B
1486080006.27,12273,9.44,73004.0,-4.83,-5.81,-5.77,0,*53
1486080007.55,12274,9.44,73004.3,-4.81,-5.77,-5.69,0,*50
1486080008.81,12275,9.44,73010.8,-4.81,-5.73,-5.65,0,*59
1486080010.07,12276,9.44,73014.8,-4.81,-5.73,-5.73,0,*5D
1486080011.34,12277,9.38,73008.8,-4.81,-5.73,-5.73,0,*5C
1486080012.6,12278,9.44,73004.0,-4.81,-5.65,-5.73,0,*54
1486080013.84,12279,9.38,73006.3,-4.79,-5.65,-5.73,0,*52
1486080015.11,12280,9.44,73004.8,-4.81,-5.73,-5.73,0,*54
1486080016.35,12281,9.44,73000.3,-4.79,-5.73,-5.65,0,*55
1486080017.58,12282,9.44,73000.0,-4.79,-5.73,-5.73,0,*51
1486080018.85,12283,9.38,73000.3,-4.81,-5.73,-5.65,0,*50
1486080020.11,12284,9.44,73008.5,-4.81,-5.65,-5.73,0,*57
1486080021.38,12285,9.44,73008.5,-4.81,-5.73,-5.65,0,*56
1486080022.62,12286,9.44,73006.3,-4.79,-5.65,-5.65,0,*55
1486080023.9,12287,9.44,73008.0,-4.81,-5.65,-5.65,0,*53
1486080025.17,12288,9.44,73010.5,-4.81,-5.65,-5.65,0,*5C
1486080026.44,12289,9.44,73010.8,-4.81,-5.65,-5.65,0,*5D
1486080027.71,12290,9.44,73014.8,-4.81,-5.73,-5.65,0,*52
1486080028.98,12291,9.44,73016.3,-4.81,-5.65,-5.65,0,*54
1486080030.25,12292,9.44,73018.5,-4.81,-5.65,-5.73,0,*50
1486080031.51,12293,9.44,73016.0,-4.81,-5.73,-5.65,0,*51
1486080032.75,12294,9.44,73008.8,-4.79,-5.73,-5.65,0,*51
1486080034.02,12295,9.38,73004.3,-4.81,-5.65,-5.73,0,*57
1486080035.29,12296,9.44,73004.5,-4.81,-5.65,-5.73,0,*54
1486080036.55,12297,9.44,73004.0,-4.81,-5.73,-5.65,0,*55
1486080037.82,12298,9.38,73006.3,-4.81,-5.65,-5.65,0,*5D
1486080039.1,12299,9.38,73006.5,-4.81,-5.65,-5.61,0,*58
1486080040.35,12300,9.44,73008.3,-4.79,-5.65,-5.65,0,*5A
1486080041.62,12301,9.44,73018.5,-4.81,-5.65,-5.65,0,*5C
1486080042.89,12302,9.44,73018.0,-4.81,-5.65,-5.73,0,*58
1486080044.13,12303,9.38,73012.5,-4.79,-5.65,-5.65,0,*59
1486080045.37,12304,9.44,73016.8,-4.79,-5.73,-5.65,0,*59
1486080046.61,12305,9.44,73014.3,-4.79,-5.65,-5.65,0,*5F
1486080047.86,12306,9.44,73014.0,-4.79,-5.65,-5.65,0,*5C
1486080049.1,12307,9.44,73016.0,-4.79,-5.73,-5.65,0,*5A
1486080050.34,12308,9.44,73018.5,-4.79,-5.65,-5.65,0,*52
1486080051.61,12309,9.44,73018.5,-4.81,-5.65,-5.65,0,*54
1486080052.85,12310,9.44,73022.5,-4.79,-5.73,-5.73,0,*5B
1486080054.12,12311,9.44,73020.8,-4.81,-5.65,-5.65,0,*5D
1486080055.39,12312,9.44,73016.3,-4.81,-5.65,-5.73,0,*59
1486080056.66,12313,9.38,73012.5,-4.81,-5.65,-5.65,0,*5F
1486080057.93,12314,9.44,73018.3,-4.81,-5.65,-5.73,0,*5F
1486080059.17,12315,9.44,73018.5,-4.79,-5.73,-5.65,0,*59
1486080060.41,12316,9.44,73016.3,-4.79,-5.77,-5.73,0,*59
1486080061.68,12317,9.38,73016.5,-4.81,-5.77,-5.73,0,*5F
1486080062.94,12318,9.38,73018.8,-4.81,-5.77,-5.73,0,*50
1486080064.21,12319,9.44,73024.5,-4.81,-5.77,-5.73,0,*51
1486080065.45,12320,9.38,73018.0,-4.79,-5.73,-5.73,0,*58
1486080066.72,12321,9.44,73018.8,-4.81,-5.77,-5.73,0,*5A
1486080067.96,12322,9.44,73020.3,-4.79,-5.77,-5.73,0,*5E
1486080069.19,12323,9.38,73014.0,-4.79,-5.73,-5.73,0,*5B
1486080070.46,12324,9.44,73018.8,-4.81,-5.73,-5.65,0,*5C
1486080071.72,12325,9.38,73014.0,-4.81,-5.73,-5.73,0,*5A
1486080072.96,12326,9.44,73016.8,-4.79,-5.65,-5.73,0,*59
1486080074.2,12327,9.44,73014.8,-4.79,-5.65,-5.73,0,*58
1486080075.47,12328,9.44,73012.3,-4.81,-5.65,-5.65,0,*57
1486080076.71,12329,9.38,73010.5,-4.79,-5.65,-5.73,0,*56
1486080077.98,12330,9.44,73014.5,-4.81,-5.73,-5.65,0,*59
1486080079.26,12331,9.44,73010.8,-4.77,-5.61,-5.61,0,*56
1486080080.5,12332,9.44,73008.0,-4.79,-5.65,-5.65,0,*5B
1486080081.73,12333,9.44,73012.3,-4.79,-5.73,-5.73,0,*5A
1486080083.01,12334,9.38,73010.3,-4.81,-5.65,-5.65,0,*5A
1486080084.25,12335,9.44,73008.0,-4.79,-5.73,-5.65,0,*5B
1486080085.52,12336,9.44,73008.5,-4.77,-5.61,-5.65,0,*55
1486080086.76,12337,9.38,73006.5,-4.79,-5.65,-5.65,0,*5E
1486080088.02,12338,9.38,73004.5,-4.81,-5.73,-5.73,0,*56
1486080089.29,12339,9.44,73010.8,-4.81,-5.77,-5.73,0,*53
1486080090.57,12340,9.38,73008.3,-4.81,-5.77,-5.85,0,*54
1486080091.83,12341,9.44,73014.5,-4.81,-5.77,-5.73,0,*5C
1486080093.1,12342,9.38,73010.8,-4.81,-5.77,-5.73,0,*5F
1486080094.38,12343,9.44,73014.3,-4.81,-5.85,-5.73,0,*53
1486080095.61,12344,9.44,73012.0,-4.79,-5.73,-5.73,0,*5A
1486080096.85,12345,9.44,73010.5,-4.79,-5.77,-5.65,0,*58
1486080098.13,12346,9.38,73008.5,-4.81,-5.85,-5.73,0,*56
1486080099.4,12347,9.44,73022.3,-4.81,-5.77,-5.65,0,*5D
1486080100.63,12348,9.44,73018.5,-4.79,-5.73,-5.73,0,*56
1486080101.9,12349,9.38,73014.8,-4.81,-5.65,-5.65,0,*50
1486080103.15,12350,9.44,73022.0,-4.79,-5.65,-5.65,0,*5F
1486080104.42,12351,9.38,73010.3,-4.81,-5.73,-5.65,0,*5E
1486080105.66,12352,9.38,73012.8,-4.79,-5.65,-5.73,0,*5A
1486080106.92,12353,9.38,73010.5,-4.81,-5.73,-5.73,0,*5B
1486080108.16,12354,9.44,73016.3,-4.79,-5.77,-5.73,0,*5F
1486080109.43,12355,9.38,73016.3,-4.81,-5.77,-5.73,0,*59
1486080110.7,12356,9.44,73020.5,-4.81,-5.65,-5.65,0,*5E
1486080111.94,12357,9.38,73020.3,-4.79,-5.73,-5.73,0,*58
1486080113.18,12358,9.38,73016.8,-4.79,-5.77,-5.73,0,*53
1486080114.42,12359,9.44,73026.8,-4.79,-5.77,-5.73,0,*52
1486080115.65,12360,9.44,73020.3,-4.79,-5.73,-5.65,0,*5B
1486080116.89,12361,9.38,73020.0,-4.79,-5.73,-5.65,0,*5A
1486080118.16,12362,9.38,73020.3,-4.81,-5.73,-5.73,0,*59
1486080119.42,12363,9.44,73020.3,-4.81,-5.73,-5.65,0,*5F
1486080120.67,12364,9.44,73024.3,-4.79,-5.65,-5.65,0,*58
1486080121.94,12365,9.38,73018.8,-4.81,-5.65,-5.65,0,*5E
1486080123.17,12366,9.38,73018.0,-4.79,-5.73,-5.73,0,*5A
1486080124.43,12367,9.44,73014.8,-4.81,-5.73,-5.73,0,*5C
1486080125.68,12368,9.38,73008.0,-4.79,-5.65,-5.73,0,*53
1486080126.95,12369,9.38,72998.3,-4.81,-5.85,-5.77,0,*5F
1486080128.19,12370,9.38,72996.8,-4.79,-5.77,-5.77,0,*5D
1486080129.44,12371,9.44,72994.0,-4.79,-5.85,-5.77,0,*51
1486080130.72,12372,9.38,72996.3,-4.81,-5.85,-5.85,0,*58
1486080131.98,12373,9.44,72996.8,-4.81,-5.77,-5.77,0,*59
1486080133.26,12374,9.44,73008.5,-4.81,-5.85,-5.85,0,*5E
1486080134.54,12375,9.38,73004.5,-4.81,-5.85,-5.77,0,*52
1486080135.81,12376,9.44,73010.5,-4.81,-5.77,-5.77,0,*5C
1486080137.08,12377,9.38,73008.5,-4.81,-5.77,-5.77,0,*5D
1486080138.32,12378,9.38,73020.3,-4.79,-5.77,-5.77,0,*55
1486080139.55,12379,9.38,73020.3,-4.79,-5.73,-5.73,0,*54
1486080140.79,12380,9.38,73022.5,-4.79,-5.73,-5.77,0,*56
1486080142.05,12381,9.44,73022.5,-4.81,-5.73,-5.77,0,*50
1486080143.32,12382,9.38,73014.0,-4.81,-5.65,-5.73,0,*50
1486080144.58,12383,9.44,73022.5,-4.81,-5.73,-5.73,0,*56
1486080145.84,12384,9.44,73022.0,-4.81,-5.73,-5.73,0,*51
1486080147.11,12385,9.38,73018.8,-4.81,-5.77,-5.73,0,*54
1486080148.38,12386,9.44,73004.3,-4.81,-5.77,-5.77,0,*53
1486080149.65,12387,9.44,73010.3,-4.81,-5.77,-5.77,0,*52
1486080150.89,12388,9.38,73014.0,-4.79,-5.73,-5.65,0,*5D
1486080152.15,12389,9.38,73014.8,-4.81,-5.73,-5.65,0,*5B
1486080153.42,12390,9.38,73014.0,-4.81,-5.65,-5.65,0,*54
1486080154.69,12391,9.38,73008.5,-4.81,-5.73,-5.73,0,*55
1486080155.95,12392,9.44,73006.5,-4.81,-5.73,-5.65,0,*51
1486080157.22,12393,9.38,73004.3,-4.81,-5.73,-5.65,0,*50
1486080158.5,12394,9.38,73000.5,-4.81,-5.85,-5.85,0,*50
1486080159.77,12395,9.38,73002.0,-4.81,-5.85,-5.77,0,*5C
1486080161.04,12396,9.38,73004.3,-4.81,-5.85,-5.73,0,*5B
1486080162.31,12397,9.44,73012.3,-4.81,-5.77,-5.73,0,*57
1486080163.57,12398,9.38,73012.0,-4.81,-5.73,-5.73,0,*5C
1486080164.83,12399,9.44,73012.3,-4.81,-5.73,-5.73,0,*5D
1486080166.1,12400,9.44,73012.5,-4.81,-5.73,-5.65,0,*5D
1486080167.34,12401,9.44,73018.8,-4.79,-5.73,-5.73,0,*5C
1486080168.6,12402,9.44,73020.3,-4.81,-5.77,-5.73,0,*5C
1486080169.86,12403,9.44,73020.0,-4.81,-5.73,-5.73,0,*59
1486080171.14,12404,9.44,73020.8,-4.81,-5.65,-5.65,0,*5E
1486080172.38,12405,9.38,73014.8,-4.79,-5.65,-5.73,0,*5F
1486080173.61,12406,9.44,73020.3,-4.79,-5.73,-5.73,0,*5B
1486080174.88,12407,9.38,73022.5,-4.81,-5.77,-5.65,0,*5E
1486080176.12,12408,9.38,73020.3,-4.79,-5.73,-5.65,0,*52
1486080177.36,12409,9.38,73020.5,-4.79,-5.73,-5.65,0,*53
1486080178.6,12410,9.38,73024.5,-4.79,-5.73,-5.73,0,*5C
1486080179.86,12411,9.44,73028.8,-4.81,-5.73,-5.73,0,*5A
1486080181.12,12412,9.38,73022.8,-4.81,-5.73,-5.73,0,*59
1486080182.36,12413,9.38,73014.0,-4.79,-5.77,-5.77,0,*5F
1486080183.63,12414,9.38,73010.5,-4.81,-5.85,-5.77,0,*52
1486080184.88,12415,9.38,73006.3,-4.79,-5.77,-5.73,0,*5D
1486080186.15,12416,9.44,73014.3,-4.77,-5.69,-5.61,0,*5C
1486080187.4,12417,9.38,73014.8,-4.79,-5.77,-5.65,0,*58
1486080188.66,12418,9.44,73018.0,-4.81,-5.73,-5.65,0,*54
1486080189.91,12419,9.38,73012.5,-4.79,-5.65,-5.65,0,*55
1486080191.18,12420,9.44,73008.3,-4.81,-5.65,-5.73,0,*5F
1486080192.44,12421,9.44,73002.3,-4.81,-5.73,-5.73,0,*59
1486080193.7,12422,9.44,72998.3,-4.81,-5.73,-5.73,0,*5A
1486080194.97,12423,9.38,72994.5,-4.81,-5.73,-5.65,0,*5C
1486080196.2,12424,9.38,72996.8,-4.79,-5.73,-5.73,0,*5B
1486080197.44,12425,9.38,72998.8,-4.79,-5.65,-5.77,0,*59
1486080198.72,12426,9.44,72998.5,-4.81,-5.77,-5.85,0,*53
1486080199.99,12427,9.38,73004.8,-4.81,-5.77,-5.77,0,*5F
1486080201.22,12428,9.38,73004.8,-4.79,-5.73,-5.73,0,*57
1486080202.48,12429,9.38,73006.3,-4.81,-5.73,-5.73,0,*51
1486080203.75,12430,9.44,73016.0,-4.81,-5.73,-5.73,0,*59
1486080205.01,12431,9.38,73014.0,-4.81,-5.73,-5.65,0,*5F
1486080206.25,12432,9.38,73018.8,-4.79,-5.73,-5.65,0,*5B
1486080207.52,12433,9.38,73022.8,-4.81,-5.65,-5.65,0,*5A
1486080208.77,12434,9.44,73020.0,-4.79,-5.65,-5.65,0,*5A
1486080210.04,12435,9.38,73026.5,-4.81,-5.65,-5.65,0,*5C
1486080211.27,12436,9.44,73030.8,-4.79,-5.73,-5.73,0,*58
1486080212.55,12437,9.44,73022.5,-4.81,-5.77,-5.65,0,*5D
1486080213.79,12438,9.44,73014.5,-4.79,-5.77,-5.85,0,*5B
1486080215.05,12439,9.38,72998.0,-4.79,-5.85,-5.85,0,*57
1486080216.29,12440,9.38,73018.3,-4.79,-5.89,-5.77,0,*58
1486080217.56,12441,9.38,73016.5,-4.81,-5.77,-5.73,0,*5B
1486080218.82,12442,9.44,73022.0,-4.81,-5.77,-5.73,0,*58
1486080220.09,12443,9.38,73016.5,-4.81,-5.77,-5.77,0,*5D
1486080221.33,12444,9.38,73008.8,-4.79,-5.77,-5.77,0,*5D
1486080222.61,12445,9.44,73014.5,-4.81,-5.85,-5.77,0,*56
1486080223.88,12446,9.38,73010.0,-4.81,-5.77,-5.77,0,*58
1486080225.12,12447,9.44,73010.0,-4.79,-5.85,-5.77,0,*53
1486080226.37,12448,9.44,73008.8,-4.79,-5.85,-5.77,0,*5C
1486080227.65,12449,9.38,73006.8,-4.81,-5.85,-5.85,0,*57
1486080228.9,12450,9.44,73016.0,-4.81,-5.97,-5.85,0,*5C
1486080230.17,12451,9.38,73014.5,-4.81,-5.89,-5.77,0,*5F
1486080231.44,12452,9.38,73012.5,-4.81,-5.77,-5.73,0,*59
1486080232.68,12453,9.44,73014.8,-4.79,-5.77,-5.73,0,*5F
1486080233.95,12454,9.38,73014.5,-4.81,-5.77,-5.65,0,*58
1486080235.21,12455,9.38,73012.8,-4.81,-5.73,-5.65,0,*5D
1486080236.48,12456,9.44,73018.3,-4.81,-5.73,-5.65,0,*5E
1486080237.71,12457,9.38,73022.5,-4.79,-5.73,-5.73,0,*5F
1486080238.96,12458,9.38,73020.3,-4.79,-5.65,-5.65,0,*50
1486080240.22,12459,9.38,73014.8,-4.81,-5.73,-5.65,0,*51
1486080241.49,12460,9.44,73018.3,-4.81,-5.73,-5.65,0,*5B
1486080242.73,12461,9.44,73016.5,-4.79,-5.73,-5.65,0,*5D
1486080243.96,12462,9.38,73012.5,-4.79,-5.73,-5.73,0,*59
1486080245.23,12463,9.44,73012.0,-4.81,-5.73,-5.65,0,*58
1486080246.49,12464,9.44,73010.8,-4.81,-5.73,-5.73,0,*58
1486080247.75,12465,9.44,73008.3,-4.81,-5.73,-5.73,0,*59
1486080249.02,12466,9.38,73004.0,-4.81,-5.73,-5.73,0,*5A
1486080250.28,12467,9.38,73012.8,-4.81,-5.77,-5.77,0,*5B
1486080251.55,12468,9.44,73012.0,-4.81,-5.73,-5.73,0,*54
1486080252.81,12469,9.38,73010.3,-4.81,-5.73,-5.73,0,*55
1486080254.07,12470,9.44,73010.0,-4.81,-5.73,-5.73,0,*5D
1486080255.31,12471,9.38,73004.8,-4.79,-5.73,-5.65,0,*5C
1486080256.57,12472,9.44,73008.8,-4.81,-5.73,-5.73,0,*5F
1486080257.83,12473,9.44,73008.3,-4.81,-5.73,-5.73,0,*5E
1486080259.07,12474,9.44,73008.5,-4.79,-5.73,-5.73,0,*5E
1486080260.33,12475,9.38,73006.0,-4.81,-5.73,-5.77,0,*5C
1486080261.6,12476,9.44,73014.0,-4.81,-5.85,-5.77,0,*56
1486080262.84,12477,9.38,73006.0,-4.79,-5.77,-5.77,0,*5D
1486080264.09,12478,9.38,73008.5,-4.79,-5.85,-5.77,0,*5F
1486080265.36,12479,9.38,73010.0,-4.81,-5.77,-5.77,0,*54
1486080266.63,12480,9.38,73010.3,-4.81,-5.77,-5.73,0,*56
1486080267.9,12481,9.44,73012.3,-4.81,-5.77,-5.73,0,*57
1486080269.16,12482,9.44,73012.8,-4.81,-5.73,-5.73,0,*50
1486080270.42,12483,9.44,73016.8,-4.81,-5.73,-5.65,0,*56
1486080271.69,12484,9.38,73008.8,-4.81,-5.73,-5.73,0,*56
1486080272.92,12485,9.44,73008.0,-4.79,-5.73,-5.73,0,*50
1486080274.19,12486,9.38,73004.5,-4.81,-5.73,-5.65,0,*53
1486080275.45,12487,9.38,73000.5,-4.81,-5.73,-5.73,0,*55
1486080276.71,12488,9.44,73010.8,-4.81,-5.73,-5.73,0,*5A
1486080277.95,12489,9.44,73018.8,-4.79,-5.77,-5.77,0,*5C
1486080279.21,12490,9.44,73008.0,-4.81,-5.73,-5.77,0,*57
1486080280.48,12491,9.44,73018.0,-4.81,-5.77,-5.77,0,*52
1486080281.72,12492,9.44,73018.8,-4.79,-5.77,-5.73,0,*52
1486080282.99,12493,9.38,73016.3,-4.81,-5.77,-5.73,0,*54
1486080284.26,12494,9.38,73012.5,-4.81,-5.77,-5.73,0,*53
1486080285.53,12495,9.44,73018.5,-4.81,-5.85,-5.73,0,*5F
1486080286.77,12496,9.44,73012.8,-4.79,-5.77,-5.73,0,*56
1486080288.04,12497,9.44,73014.5,-4.81,-5.73,-5.77,0,*50
1486080289.31,12498,9.44,73014.3,-4.81,-5.65,-5.65,0,*5B
1486080290.54,12499,9.44,73012.5,-4.79,-5.73,-5.73,0,*5D
1486080291.78,12500,9.44,73014.0,-4.79,-5.73,-5.73,0,*5C
1486080293.04,12501,9.44,73014.0,-4.81,-5.73,-5.73,0,*5A
1486080294.27,12502,9.44,73010.0,-4.79,-5.73,-5.73,0,*5E
1486080295.51,12503,9.44,73012.8,-4.79,-5.73,-5.65,0,*58
1486080296.78,12504,9.44,73012.8,-4.81,-5.73,-5.65,0,*58
1486080298.04,12505,9.38,73008.8,-4.81,-5.73,-5.65,0,*59
1486080299.31,12506,9.44,73012.0,-4.81,-5.73,-5.65,0,*5A
1486080300.55,12507,9.44,73014.0,-4.79,-5.73,-5.65,0,*5C
1486080301.79,12508,9.44,73012.0,-4.79,-5.65,-5.65,0,*54
1486080303.03,12509,9.38,73010.8,-4.79,-5.73,-5.65,0,*52
1486080304.27,12510,9.44,73014.5,-4.79,-5.65,-5.73,0,*5A
1486080305.51,12511,9.44,73014.5,-4.79,-5.73,-5.65,0,*5B
1486080306.75,12512,9.44,73010.3,-4.79,-5.65,-5.65,0,*5F
1486080308.01,12513,9.44,73010.5,-4.77,-5.61,-5.55,0,*57
1486080309.24,12514,9.44,73010.3,-4.79,-5.73,-5.65,0,*5E
1486080310.52,12515,9.44,73008.8,-4.77,-5.69,-5.61,0,*5E
1486080311.8,12516,9.38,73008.0,-4.77,-5.69,-5.69,0,*55
1486080313.03,12517,9.44,73010.8,-4.79,-5.73,-5.73,0,*5A
1486080314.28,12518,9.38,73002.5,-4.79,-5.65,-5.65,0,*55
1486080315.55,12519,9.38,73002.5,-4.77,-5.61,-5.61,0,*5A
1486080316.8,12520,9.38,73004.0,-4.79,-5.65,-5.61,0,*5A
1486080318.08,12521,9.44,73004.3,-4.81,-5.65,-5.61,0,*5C
1486080319.33,12522,9.44,73006.5,-4.79,-5.65,-5.61,0,*58
1486080320.58,12523,9.44,73004.8,-4.79,-5.65,-5.61,0,*59
1486080321.82,12524,9.38,73002.3,-4.79,-5.61,-5.61,0,*5A
1486080323.07,12525,9.44,73006.3,-4.79,-5.61,-5.61,0,*5B
1486080324.31,12526,9.44,73006.8,-4.79,-5.61,-5.61,0,*58
1486080325.56,12527,9.38,73004.3,-4.79,-5.61,-5.61,0,*59
1486080326.81,12528,9.38,73004.8,-4.79,-5.61,-5.61,0,*56
1486080328.04,12529,9.44,73002.8,-4.79,-5.73,-5.65,0,*50
1486080329.28,12530,9.44,73002.3,-4.79,-5.73,-5.65,0,*58
1486080330.55,12531,9.44,73006.8,-4.77,-5.61,-5.69,0,*58
1486080331.83,12532,9.44,73006.5,-4.77,-5.61,-5.61,0,*53
1486080333.1,12533,9.44,73006.5,-4.77,-5.61,-5.61,0,*52
1486080334.38,12534,9.44,73004.5,-4.77,-5.61,-5.61,0,*55
1486080335.66,12535,9.44,73008.8,-4.77,-5.61,-5.61,0,*54
1486080336.93,12536,9.38,73004.0,-4.77,-5.61,-5.69,0,*5F
1486080338.2,12537,9.38,73004.3,-4.77,-5.61,-5.61,0,*56
1486080339.48,12538,9.44,73008.0,-4.77,-5.61,-5.61,0,*59
1486080340.75,12539,9.44,73010.0,-4.77,-5.61,-5.61,0,*58
1486080342.0,12540,9.44,73008.0,-4.77,-5.61,-5.55,0,*51
1486080343.24,12541,9.44,73010.5,-4.77,-5.55,-5.55,0,*57
1486080344.47,12542,9.44,73012.5,-4.77,-5.55,-5.55,0,*54
1486080345.71,12543,9.44,73018.5,-4.77,-5.55,-5.55,0,*55
1486080346.99,12544,9.44,73016.0,-4.77,-5.69,-5.61,0,*5A
1486080348.26,12545,9.44,73016.0,-4.77,-5.69,-5.69,0,*53
1486080349.54,12546,9.38,73018.8,-4.77,-5.61,-5.61,0,*50
1486080350.77,12547,9.44,73022.0,-4.79,-5.73,-5.73,0,*5F
1486080352.05,12548,9.44,73024.8,-4.77,-5.69,-5.69,0,*5E
1486080353.33,12549,9.44,73026.0,-4.77,-5.69,-5.61,0,*57
1486080354.6,12550,9.44,73024.5,-4.77,-5.61,-5.69,0,*5F
1486080355.88,12551,9.38,73018.3,-4.77,-5.69,-5.61,0,*5E
1486080357.15,12552,9.44,73018.8,-4.77,-5.61,-5.69,0,*5D
1486080358.42,12553,9.44,73020.3,-4.73,-5.65,-5.65,0,*50
1486080359.7,12554,9.44,73020.3,-4.77,-5.69,-5.61,0,*5B
1486080360.97,12555,9.38,73016.3,-4.73,-5.65,-5.65,0,*56
1486080362.21,12556,9.44,73020.8,-4.79,-5.73,-5.73,0,*5F
1486080363.48,12557,9.38,73016.5,-4.77,-5.61,-5.61,0,*50
1486080364.75,12558,9.44,73016.8,-4.73,-5.65,-5.65,0,*5B
1486080366.02,12559,9.38,73016.3,-4.77,-5.73,-5.73,0,*5E
1486080367.25,12560,9.38,73014.3,-4.79,-5.73,-5.65,0,*5D
1486080368.52,12561,9.44,73014.5,-4.77,-5.61,-5.73,0,*56
1486080369.79,12562,9.38,73006.8,-4.77,-5.81,-5.73,0,*5B
1486080371.07,12563,9.38,73000.5,-4.77,-5.81,-5.81,0,*57
1486080372.35,12564,9.44,73010.5,-4.77,-5.85,-5.85,0,*50
1486080373.63,12565,9.38,73016.8,-4.77,-5.85,-5.93,0,*56
1486080374.91,12566,9.44,73020.0,-4.77,-5.85,-5.85,0,*52
1486080376.19,12567,9.44,73018.3,-4.77,-5.93,-5.93,0,*53
1486080377.41,12568,9.38,73014.3,-4.79,-6.01,-5.89,0,*51
1486080378.6,12569,9.44,73018.5,-4.79,-6.01,-6.01,0,*53
1486080379.8,12570,9.44,73018.5,-4.79,-6.13,-6.09,0,*50
1486080381.04,12571,9.44,73022.3,-4.77,-6.19,-6.05,0,*59
1486080382.26,12572,9.44,73004.8,-4.77,-6.31,-6.09,0,*5C
1486080383.51,12573,9.38,73008.5,-4.81,-6.35,-6.23,0,*58
1486080384.7,12574,9.38,73012.5,-4.79,-6.35,-6.13,0,*5B
1486080385.92,12575,9.44,73018.0,-4.77,-6.31,-6.05,0,*57
1486080387.14,12576,9.44,73020.5,-4.81,-6.35,-6.09,0,*55
1486080388.39,12577,9.38,73016.3,-4.77,-6.23,-5.97,0,*5E
1486080389.6,12578,9.44,73010.0,-4.79,-6.27,-6.09,0,*5F
1486080390.81,12579,9.38,73016.8,-4.79,-6.27,-6.01,0,*56
1486080392.0,12580,9.38,73012.8,-4.79,-6.13,-6.01,0,*57
1486080393.19,12581,9.44,73010.8,-4.79,-6.13,-6.01,0,*56
1486080394.42,12582,9.44,73006.5,-4.79,-6.01,-5.89,0,*55
1486080395.67,12583,9.44,73014.0,-4.81,-6.01,-5.89,0,*53
1486080396.86,12584,9.44,73006.5,-4.79,-6.01,-5.97,0,*5C
1486080398.11,12585,9.44,73010.8,-4.81,-6.01,-5.89,0,*55
1486080399.36,12586,9.38,73006.5,-4.79,-5.89,-5.85,0,*5E
1486080400.6,12587,9.44,73010.3,-4.79,-5.89,-5.85,0,*5F
1486080401.83,12588,9.38,73002.3,-4.79,-5.97,-5.89,0,*53
1486080403.11,12589,9.38,73000.0,-4.77,-5.85,-5.93,0,*54
1486080404.38,12590,9.38,72994.3,-4.73,-5.81,-5.81,0,*5F
1486080405.6,12591,9.44,72988.3,-4.79,-5.97,-5.89,0,*5B
1486080406.87,12592,9.38,72988.0,-4.81,-5.89,-5.89,0,*50
1486080408.12,12593,9.38,72994.5,-4.79,-5.89,-5.89,0,*56
1486080409.37,12594,9.44,72996.5,-4.79,-5.89,-5.89,0,*51
1486080410.65,12595,9.38,72990.8,-4.81,-5.89,-5.89,0,*57
1486080411.91,12596,9.44,72994.3,-4.81,-5.73,-5.77,0,*50
1486080413.15,12597,9.38,72990.8,-4.79,-5.77,-5.77,0,*52
1486080414.4,12598,9.38,72992.3,-4.79,-5.85,-5.77,0,*50
1486080415.67,12599,9.38,72992.5,-4.77,-5.81,-5.81,0,*52
1486080416.95,12600,9.44,72998.3,-4.81,-5.85,-5.85,0,*58
1486080418.23,12601,9.38,72996.8,-4.81,-5.77,-5.85,0,*54
1486080419.5,12602,9.38,72996.3,-4.81,-5.85,-5.77,0,*57
1486080420.73,12603,9.38,72998.3,-4.79,-5.73,-5.73,0,*5C
1486080422.01,12604,9.38,72996.5,-4.81,-5.85,-5.77,0,*51
1486080423.28,12605,9.38,72994.8,-4.81,-5.77,-5.77,0,*5D
1486080424.53,12606,9.38,72996.3,-4.79,-5.85,-5.85,0,*59
1486080425.77,12607,9.38,72998.5,-4.79,-5.85,-5.77,0,*55
1486080427.02,12608,9.38,73000.5,-4.79,-5.77,-5.77,0,*57
1486080428.26,12609,9.38,73004.8,-4.79,-5.85,-5.77,0,*5B
1486080429.5,12610,9.38,73010.5,-4.79,-5.77,-5.77,0,*5E
1486080430.78,12611,9.38,73008.5,-4.81,-5.85,-5.73,0,*51
1486080432.02,12612,9.38,73006.8,-4.79,-5.85,-5.73,0,*55
1486080433.26,12613,9.44,73014.8,-4.79,-5.85,-5.77,0,*50
1486080434.53,12614,9.44,73010.8,-4.81,-5.77,-5.77,0,*5D
1486080435.78,12615,9.44,73014.8,-4.79,-5.77,-5.77,0,*5B
1486080437.03,12616,9.44,73012.5,-4.79,-5.85,-5.85,0,*58
1486080438.25,12617,9.38,73008.0,-4.81,-5.97,-5.97,0,*5E
1486080439.46,12618,9.44,73012.8,-4.81,-5.97,-6.01,0,*5D
1486080440.71,12619,9.44,73014.3,-4.81,-5.97,-5.89,0,*5F
1486080441.93,12620,9.44,73022.3,-4.81,-5.97,-5.97,0,*5A
1486080443.12,12621,9.44,73018.0,-4.79,-6.09,-5.97,0,*58
1486080444.32,12622,9.44,73018.0,-4.79,-6.01,-5.97,0,*53
1486080445.53,12623,9.44,73016.8,-4.79,-6.23,-6.01,0,*5E
1486080446.75,12624,9.38,73014.0,-4.77,-6.09,-6.05,0,*5B
1486080448.01,12625,9.44,73020.0,-4.81,-6.27,-6.23,0,*5B
1486080449.23,12626,9.44,73020.0,-4.79,-6.35,-6.23,0,*5C
1486080450.45,12627,9.38,73020.0,-4.79,-6.35,-6.23,0,*5D
1486080451.67,12628,9.38,73020.0,-4.81,-6.39,-6.35,0,*5E
1486080452.87,12629,9.44,73018.3,-4.79,-6.55,-6.47,0,*57
1486080454.07,12630,9.38,73004.0,-4.79,-6.81,-6.51,0,*51
1486080455.26,12631,9.38,73008.0,-4.79,-7.19,-6.51,0,*50
1486080456.46,12632,9.38,73000.0,-4.79,-7.15,-6.51,0,*5F
1486080457.66,12633,9.44,73006.3,-4.79,-6.81,-6.35,0,*50
1486080458.91,12634,9.44,73000.3,-4.81,-6.55,-6.27,0,*5A
1486080460.13,12635,9.38,73000.0,-4.81,-6.51,-6.13,0,*58
1486080461.32,12636,9.44,73010.3,-4.79,-6.39,-6.13,0,*52
1486080462.54,12637,9.38,73008.3,-4.77,-6.35,-5.97,0,*5E
1486080463.76,12638,9.38,73008.5,-4.81,-6.39,-6.13,0,*5B
1486080464.98,12639,9.44,73018.0,-4.77,-6.31,-6.09,0,*50
1486080466.19,12640,9.38,73006.5,-4.79,-6.39,-6.23,0,*50
1486080467.43,12641,9.38,73008.5,-4.79,-6.63,-6.27,0,*5A
1486080468.67,12642,9.38,72988.3,-4.81,-6.77,-6.27,0,*5B
1486080469.9,12643,9.38,72974.8,-4.81,-6.77,-6.35,0,*59
1486080471.12,12644,9.38,72968.0,-4.81,-6.77,-6.35,0,*5E
1486080472.34,12645,9.44,72996.8,-4.81,-6.69,-6.39,0,*5C
1486080473.56,12646,9.38,73002.3,-4.81,-6.77,-6.47,0,*59
1486080474.78,12647,9.38,72998.5,-4.81,-6.81,-6.55,0,*52
1486080476.01,12648,9.38,72982.3,-4.81,-6.89,-6.51,0,*51
1486080477.25,12649,9.38,72968.8,-4.81,-6.89,-6.63,0,*51
1486080478.47,12650,9.44,72964.5,-4.81,-6.89,-6.69,0,*53
1486080479.72,12651,9.38,72966.5,-4.81,-6.93,-6.81,0,*5F
1486080480.97,12652,9.38,72996.0,-4.83,-6.93,-6.97,0,*59
1486080482.2,12653,9.44,72992.8,-4.83,-6.97,-7.23,0,*52
1486080483.43,12654,9.38,72982.5,-4.83,-7.19,-7.61,0,*54
1486080484.65,12655,9.38,72984.0,-4.83,-7.23,-8.11,0,*54
1486080485.86,12656,9.38,72986.8,-4.83,-7.61,-8.67,0,*50
1486080487.06,12657,9.38,72992.3,-4.83,-7.87,-8.97,0,*56
1486080488.25,12658,9.44,72992.3,-4.83,-8.25,-9.27,0,*54
1486080489.51,12659,9.38,72992.3,-4.85,-8.59,-9.37,0,*59
1486080490.73,12660,9.38,73006.3,-4.83,-8.71,-9.41,0,*5E
1486080491.93,12661,9.38,72998.8,-4.83,-9.05,-9.79,0,*56
1486080493.13,12662,9.38,73010.0,-4.83,-9.67,-10.45,0,*66
1486080494.37,12663,9.38,72996.5,-4.85,-10.23,-10.57,0,*5A
1486080495.63,12664,9.38,72990.3,-4.87,-10.41,-10.63,0,*5C
1486080496.86,12665,9.44,72982.5,-4.83,-10.49,-10.63,0,*51
1486080498.15,12666,9.44,72992.3,-4.85,-10.75,-10.71,0,*58
1486080499.36,12667,9.38,72992.0,-4.83,-10.35,-10.31,0,*5F
1486080500.63,12668,9.44,72988.0,-4.85,-10.63,-10.35,0,*51
1486080501.88,12669,9.44,72986.3,-4.87,-10.67,-10.35,0,*56
1486080503.11,12670,9.44,72984.5,-4.85,-10.89,-10.45,0,*5B
1486080504.34,12671,9.38,72980.8,-4.85,-10.89,-10.45,0,*5A
1486080505.58,12672,9.38,72984.3,-4.85,-11.15,-10.35,0,*5A
1486080506.85,12673,9.38,72972.8,-4.89,-11.19,-10.41,0,*58
1486080508.12,12674,9.44,72986.5,-4.89,-11.07,-10.15,0,*51
1486080509.33,12675,9.44,72986.5,-4.87,-11.23,-10.15,0,*58
1486080510.55,12676,9.44,72996.0,-4.89,-11.19,-9.97,0,*6E
1486080511.84,12677,9.44,72996.3,-4.89,-11.07,-9.83,0,*65
1486080513.05,12678,9.44,72988.5,-4.87,-10.97,-9.79,0,*69
1486080514.27,12679,9.44,72986.0,-4.89,-10.89,-9.67,0,*66
1486080515.49,12680,9.38,72988.3,-4.87,-10.79,-9.31,0,*62
1486080516.72,12681,9.44,73002.0,-4.89,-10.49,-9.01,0,*6D
1486080517.95,12682,9.44,73000.3,-4.89,-10.23,-8.85,0,*6F
1486080519.19,12683,9.38,73000.8,-4.89,-9.93,-8.51,0,*54
1486080520.45,12684,9.44,73002.0,-4.89,-9.79,-8.07,0,*54
1486080521.68,12685,9.44,73002.3,-4.89,-9.27,-7.83,0,*5D
1486080522.93,12686,9.38,73004.0,-4.89,-9.01,-7.57,0,*53
1486080524.19,12687,9.38,73002.5,-4.89,-8.71,-7.39,0,*5C
1486080525.42,12688,9.44,73004.5,-4.87,-8.51,-7.23,0,*54
1486080526.69,12689,9.44,73012.8,-4.89,-8.07,-6.97,0,*56